Date_and_time,latitude,longitude,wind_speed,RelWindDirFrom,WindDirFrom,air_pressure,air_temperature,relative_humidity,Temp,platform_speed_wrt_ground,air_pressure_at_mean_sea_level,platform_orientation
2018-05-12 23:40,50.6304333333333,-96.98075,11.9,20.1,240,987.34,21.3,11,8.52,0.0,1013.19,228.3
2018-05-12 23:50,50.6304283333333,-96.98075,10.4,17.8,235,987.17,21.2,11,8.51,0.0,1013.02,228.3
2018-05-13 00:00,50.6304266666667,-96.980755,10.3,17.1,231,987.01,21.3,11,8.51,0.0,1012.84,360.0
2018-05-13 00:10,50.6304283333333,-96.9807583333333,9.7,15.0,225,986.91,21.1,11,8.52,0.0,1012.75,360.0
2018-05-13 00:20,50.6304266666667,-96.98075,10.4,15.2,239,986.85,21.3,11,8.53,0.0,1012.67,360.0
2018-05-13 00:30,50.6304333333333,-96.9807733333333,9.7,14.3,236,986.75,21.3,11,8.53,0.0,1012.57,360.0
2018-05-13 00:40,50.6304383333333,-96.9807733333333,9.0,14.5,241,986.63,21.2,12,8.55,0.0,1012.45,360.0
2018-05-13 00:50,50.6304383333333,-96.9807616666667,8.5,13.3,249,986.56,21.2,12,8.55,0.0,1012.37,360.0
2018-05-13 01:00,50.6304416666667,-96.980765,7.8,12.3,242,986.49,21.0,12,8.57,0.0,1012.31,336.5
2018-05-13 01:10,50.63044,-96.980765,7.9,10.9,241,986.36,20.8,12,8.61,0.0,1012.19,336.5
2018-05-13 01:20,50.6304283333333,-96.980775,7.0,11.5,239,986.27,20.6,13,8.62,0.0,1012.10,336.5
2018-05-13 01:30,50.6304316666667,-96.9807683333333,5.9,8.3,235,986.17,20.3,13,8.63,0.0,1011.99,336.5
2018-05-13 01:40,50.6304566666667,-96.980825,5.4,7.4,225,986.03,19.9,13,8.58,0.0,1011.87,336.5
2018-05-13 01:50,50.6304333333333,-96.980775,5.3,7.5,217,985.90,19.6,14,8.46,0.0,1011.75,336.5
2018-05-13 02:00,50.6304266666667,-96.9807716666667,5.1,6.1,212,985.88,19.1,14,8.35,0.0,1011.76,234.7
2018-05-13 02:10,50.6304316666667,-96.980765,5.4,6.7,210,985.86,18.7,15,8.35,0.0,1011.75,234.7
2018-05-13 02:20,50.6304516666667,-96.98076,5.4,6.2,204,985.82,18.4,15,8.26,0.0,1011.72,234.7
2018-05-13 02:30,50.6304383333333,-96.9807566666667,5.4,6.0,204,985.78,18.3,15,8.14,0.0,1011.69,234.7
2018-05-13 02:40,50.6304416666667,-96.98076,5.7,6.8,200,985.76,18.0,16,8.12,0.0,1011.68,234.7
2018-05-13 02:50,50.63044,-96.9807633333333,6.2,7.8,201,985.74,17.8,16,8.09,0.0,1011.68,234.7
2018-05-13 03:00,50.630435,-96.9807633333333,6.8,8.1,199,985.68,17.5,17,8.05,0.0,1011.63,345.5
2018-05-13 03:10,50.6304316666667,-96.9807816666667,6.4,7.6,195,985.59,17.3,18,8.04,0.0,1011.57,345.5
2018-05-13 03:20,50.630425,-96.9807516666667,6.7,7.3,189,985.55,16.6,18,8.05,0.0,1011.57,345.5
2018-05-13 03:30,50.6304366666667,-96.9807583333333,6.8,7.7,192,985.47,16.2,19,8.01,0.0,1011.52,345.5
2018-05-13 03:40,50.6304366666667,-96.9807583333333,6.2,7.6,200,985.40,16.2,20,7.96,0.0,1011.46,345.5
2018-05-13 03:50,50.6304383333333,-96.9807583333333,6.6,7.8,202,985.30,15.9,22,7.93,0.0,1011.40,345.5
2018-05-13 04:00,50.63044,-96.98076,7.0,9.5,213,985.26,15.9,25,7.89,0.0,1011.38,90.0
2018-05-13 04:10,50.6304416666667,-96.98076,7.8,10.0,214,985.24,15.9,26,7.87,0.0,1011.36,90.0
2018-05-13 04:20,50.630445,-96.98076,8.1,10.5,214,985.13,15.7,28,7.87,0.0,1011.27,90.0
2018-05-13 04:30,50.630445,-96.9807583333333,7.4,10.5,216,985.05,15.4,29,7.94,0.0,1011.22,90.0
2018-05-13 04:40,50.6304466666667,-96.9807566666667,7.0,9.7,221,984.97,15.2,30,8.01,0.0,1011.15,90.0
2018-05-13 04:50,50.6304583333333,-96.9807333333333,7.7,9.4,224,984.97,14.9,31,8.06,0.0,1011.17,90.0
2018-05-13 05:00,50.6304616666667,-96.9807416666667,7.0,9.7,222,984.93,14.7,32,8.08,0.0,1011.16,10.2
2018-05-13 05:10,50.6304416666667,-96.9807566666667,7.2,9.2,222,984.91,14.5,32,8.10,0.0,1011.17,10.2
2018-05-13 05:20,50.6304433333333,-96.9807533333333,8.3,10.5,221,984.82,14.5,33,8.12,0.0,1011.10,10.2
2018-05-13 05:30,50.630445,-96.980755,8.8,10.9,219,984.75,14.5,33,8.13,0.0,1011.03,10.2
2018-05-13 05:40,50.6304416666667,-96.9807466666667,7.9,10.2,219,984.65,14.4,33,8.14,0.0,1010.94,10.2
2018-05-13 05:50,50.63044,-96.98075,8.3,10.7,220,984.54,14.2,34,8.15,0.0,1010.84,10.2
2018-05-13 06:00,50.63045,-96.98076,8.6,11.4,220,984.38,14.1,34,8.16,0.0,1010.68,360.0
2018-05-13 06:10,50.6304483333333,-96.9807516666667,8.9,12.1,220,984.28,14.0,34,8.17,0.0,1010.59,360.0
2018-05-13 06:20,50.6304483333333,-96.980755,8.9,11.3,222,984.21,14.0,34,8.17,0.0,1010.54,360.0
2018-05-13 06:30,50.6304483333333,-96.9807583333333,9.1,11.1,222,984.15,13.9,34,8.16,0.0,1010.49,360.0
2018-05-13 06:40,50.6304483333333,-96.9807566666667,8.7,11.4,220,984.07,13.9,34,8.14,0.0,1010.42,360.0
2018-05-13 06:50,50.6304483333333,-96.9807583333333,8.6,11.2,220,983.99,13.7,35,8.12,0.0,1010.36,360.0
2018-05-13 07:00,50.6304466666667,-96.9807566666667,8.1,11.2,222,983.89,13.6,35,8.12,0.0,1010.26,38.0
2018-05-13 07:10,50.6304466666667,-96.9807616666667,6.6,8.5,208,983.75,13.3,36,8.11,0.0,1010.14,38.0
2018-05-13 07:20,50.630445,-96.98076,7.0,8.8,202,983.65,12.3,38,8.10,0.0,1010.08,38.0
2018-05-13 07:30,50.630445,-96.9807616666667,7.0,8.1,212,983.59,12.0,37,8.10,0.0,1010.04,38.0
2018-05-13 07:40,50.6304416666667,-96.9807566666667,6.6,8.3,210,983.47,12.1,37,8.10,0.0,1009.92,38.0
2018-05-13 07:50,50.63045,-96.9807883333333,6.3,8.1,215,983.45,12.0,37,8.09,0.0,1009.90,38.0
2018-05-13 08:00,50.6304233333333,-96.9807583333333,6.4,9.1,221,983.47,12.3,37,8.07,0.0,1009.91,192.2
2018-05-13 08:10,50.6304366666667,-96.9807666666667,7.5,10.0,222,983.45,12.5,37,8.07,0.0,1009.90,192.2
2018-05-13 08:20,50.6304366666667,-96.98077,7.8,10.4,221,983.39,12.5,38,8.07,0.0,1009.83,192.2
2018-05-13 08:30,50.6304383333333,-96.9807683333333,7.7,9.9,219,983.26,12.5,38,8.06,0.0,1009.71,192.2
2018-05-13 08:40,50.6304433333333,-96.98076,8.3,11.0,223,983.21,12.4,38,8.06,0.0,1009.65,192.2
2018-05-13 08:50,50.6304416666667,-96.9807566666667,8.0,10.2,223,983.20,12.3,39,8.06,0.0,1009.66,192.2
2018-05-13 09:00,50.6304433333333,-96.9807533333333,8.0,10.2,222,983.20,12.1,40,8.06,0.0,1009.69,360.0
2018-05-13 09:10,50.630445,-96.9807533333333,8.5,12.0,218,983.16,12.0,40,8.07,0.0,1009.70,360.0
2018-05-13 09:20,50.6304516666667,-96.98075,8.0,11.2,210,983.13,11.8,42,8.07,0.0,1009.69,360.0
2018-05-13 09:30,50.6304466666667,-96.980755,6.5,8.1,210,983.12,10.7,44,8.07,0.0,1009.72,360.0
2018-05-13 09:40,50.6304566666667,-96.9807533333333,6.0,8.5,226,983.17,11.0,43,8.07,0.0,1009.77,360.0
2018-05-13 09:50,50.63045,-96.9807483333333,7.3,9.9,222,983.13,11.0,44,8.07,0.0,1009.71,360.0
2018-05-13 10:00,50.6304616666667,-96.980745,9.0,12.0,222,983.11,11.1,44,8.07,0.0,1009.68,3.2
2018-05-13 10:10,50.6304516666667,-96.980745,9.4,12.8,224,983.06,11.2,45,8.06,0.0,1009.62,3.2
2018-05-13 10:20,50.6304416666667,-96.9807566666667,9.3,13.8,226,982.97,11.1,45,8.04,0.0,1009.54,3.2
2018-05-13 10:30,50.63044,-96.9807466666667,8.7,14.2,226,982.95,11.2,46,8.02,0.0,1009.51,3.2
2018-05-13 10:40,50.6304416666667,-96.98075,9.0,12.0,223,982.89,11.2,46,8.02,0.0,1009.46,3.2
2018-05-13 10:50,50.6304433333333,-96.9807483333333,9.8,12.7,224,982.85,11.0,46,8.01,0.0,1009.43,3.2
2018-05-13 11:00,50.6304466666667,-96.9807516666667,10.2,13.2,223,982.79,11.0,46,7.99,0.0,1009.38,27.6
2018-05-13 11:10,50.6304466666667,-96.9807516666667,9.6,11.7,227,982.77,10.9,46,7.98,0.0,1009.37,27.6
2018-05-13 11:20,50.6304466666667,-96.9807533333333,9.9,13.4,224,982.69,10.9,46,7.96,0.0,1009.33,27.6
2018-05-13 11:30,50.6304466666667,-96.9807533333333,10.9,16.5,222,982.59,11.0,46,7.95,0.0,1009.22,27.6
2018-05-13 11:40,50.6304466666667,-96.9807533333333,10.7,14.4,225,982.52,11.0,47,7.93,0.0,1009.15,27.6
2018-05-13 11:50,50.6304466666667,-96.9807516666667,9.6,13.6,225,982.48,11.1,47,7.92,0.0,1009.09,27.6
2018-05-13 12:00,50.6304466666667,-96.9807533333333,11.2,15.2,223,982.42,11.5,46,7.90,0.0,1009.01,360.0
2018-05-13 12:10,50.630445,-96.9807516666667,10.6,14.4,226,982.43,11.7,46,7.89,0.0,1009.02,360.0
2018-05-13 12:20,50.630445,-96.9807516666667,11.0,15.5,224,982.39,11.9,46,7.87,0.0,1008.96,360.0
2018-05-13 12:30,50.630445,-96.9807516666667,12.9,17.2,224,982.35,12.1,46,7.85,0.0,1008.91,360.0
2018-05-13 12:40,50.630445,-96.9807516666667,12.5,17.1,227,982.26,12.5,46,7.83,0.0,1008.81,360.0
2018-05-13 12:50,50.630445,-96.9807533333333,11.8,17.7,226,982.30,12.8,45,7.82,0.0,1008.84,360.0
2018-05-13 13:00,50.6304516666667,-96.9807566666667,12.0,16.4,225,982.23,13.1,45,7.82,0.0,1008.75,216.6
2018-05-13 13:10,50.6304483333333,-96.9807566666667,12.3,18.4,225,982.20,13.5,44,7.83,0.0,1008.71,216.6
2018-05-13 13:20,50.630445,-96.9807566666667,13.1,21.1,234,982.22,14.0,44,7.82,0.0,1008.70,216.6
2018-05-13 13:30,50.630445,-96.980755,12.0,17.8,232,982.17,14.3,44,7.82,0.0,1008.63,216.6
2018-05-13 13:40,50.6304533333333,-96.9807516666667,12.5,18.8,234,982.12,14.3,44,7.81,0.0,1008.57,216.6
2018-05-13 13:50,50.6304516666667,-96.9807583333333,11.8,17.6,236,982.07,14.5,43,7.85,0.0,1008.50,216.6
2018-05-13 14:00,50.6304516666667,-96.9807566666667,12.2,16.6,228,981.92,14.7,43,7.86,0.0,1008.32,347.4
2018-05-13 14:10,50.6304466666667,-96.98076,13.3,18.3,229,981.75,15.1,43,7.84,0.0,1008.12,347.4
2018-05-13 14:20,50.6304516666667,-96.9807616666667,14.7,21.7,230,981.66,15.8,42,7.86,0.0,1007.98,347.4
2018-05-13 14:30,50.63045,-96.980755,13.0,19.9,227,981.61,16.4,41,7.89,0.0,1007.89,347.4
2018-05-13 14:40,50.6304233333333,-96.9807283333333,15.8,22.2,237,981.50,17.1,39,7.91,0.0,1007.73,347.4
2018-05-13 14:50,50.630435,-96.9807483333333,15.5,23.3,238,981.39,17.8,38,7.94,0.0,1007.57,347.4
2018-05-13 15:00,50.6304116666667,-96.9807533333333,15.5,22.5,234,981.27,18.1,37,7.96,0.0,1007.41,161.1
2018-05-13 15:10,50.6304366666667,-96.980745,16.1,24.2,242,981.19,18.2,36,7.99,0.0,1007.30,161.1
2018-05-13 15:20,50.6304416666667,-96.9807483333333,15.6,23.6,238,981.15,18.5,35,7.99,0.0,1007.24,161.1
2018-05-13 15:30,50.6304433333333,-96.98075,14.1,20.9,241,981.40,19.0,34,8.00,0.0,1007.47,161.1
2018-05-13 15:40,50.6304433333333,-96.98075,14.2,23.0,252,981.34,19.4,33,7.99,0.0,1007.38,161.1
2018-05-13 15:50,50.6304416666667,-96.98075,13.6,22.2,252,981.24,19.4,33,7.96,0.0,1007.27,161.1
2018-05-13 16:00,50.6304416666667,-96.98075,14.4,21.9,250,981.19,19.6,32,8.04,0.0,1007.20,360.0
2018-05-13 16:10,50.6304416666667,-96.9807483333333,14.3,22.3,246,981.20,19.7,32,8.10,0.0,1007.16,360.0
2018-05-13 16:20,50.6304416666667,-96.9807483333333,13.6,23.0,256,981.13,20.1,31,8.16,0.0,1007.05,360.0
2018-05-13 16:30,50.6304416666667,-96.98075,13.8,23.2,250,981.21,20.2,31,8.23,0.0,1007.10,360.0
2018-05-13 16:40,50.6304416666667,-96.98075,11.5,17.9,257,981.21,20.5,31,8.28,0.0,1007.05,360.0
2018-05-13 16:50,50.63044,-96.98075,13.5,20.0,254,981.37,20.6,31,8.33,0.0,1007.19,360.0
2018-05-13 17:00,50.6304416666667,-96.98075,11.2,20.6,258,981.26,20.9,30,8.38,0.0,1007.07,360.0
2018-05-13 17:10,50.6304416666667,-96.98075,12.2,21.1,259,981.34,21.0,30,8.43,0.0,1007.14,360.0
2018-05-13 17:20,50.6304416666667,-96.98075,12.2,17.8,250,981.35,21.0,30,8.44,0.0,1007.12,360.0
2018-05-13 17:30,50.6304416666667,-96.98075,11.0,18.2,265,981.13,21.2,30,8.50,0.0,1006.87,360.0
2018-05-13 17:40,50.6304416666667,-96.98075,12.8,20.7,250,981.02,21.4,29,8.54,0.0,1006.74,360.0
2018-05-13 17:50,50.6304416666667,-96.98075,11.1,15.7,252,980.91,21.6,29,8.58,0.0,1006.62,360.0
2018-05-13 18:00,50.6304433333333,-96.980745,12.4,17.1,247,980.96,21.9,28,8.60,0.0,1006.64,29.9
2018-05-13 18:10,50.6304383333333,-96.9807466666667,10.3,17.2,267,980.89,22.3,27,8.64,0.0,1006.54,29.9
2018-05-13 18:20,50.6304383333333,-96.9807416666667,10.9,16.4,265,980.83,22.7,26,8.68,0.0,1006.45,29.9
2018-05-13 18:30,50.630435,-96.980745,8.2,17.0,271,980.73,22.9,26,8.76,0.0,1006.33,29.9
2018-05-13 18:40,50.63044,-96.9807833333333,9.4,16.5,278,980.67,23.5,25,8.85,0.0,1006.25,29.9
2018-05-13 18:50,50.6304366666667,-96.980745,9.7,15.7,273,980.70,23.4,25,8.94,0.0,1006.26,29.9
2018-05-13 19:00,50.63044,-96.9807533333333,8.7,14.9,273,980.67,23.5,25,9.05,0.0,1006.23,90.0
2018-05-13 19:10,50.63044,-96.9807533333333,9.6,14.5,276,980.58,23.8,24,9.18,0.0,1006.12,90.0
2018-05-13 19:20,50.630435,-96.980745,6.8,13.2,254,980.49,23.8,24,9.21,0.0,1006.02,90.0
2018-05-13 19:30,50.6304383333333,-96.98075,7.8,13.0,294,980.38,24.3,22,9.21,0.0,1005.88,90.0
2018-05-13 19:40,50.630435,-96.98075,8.8,16.9,281,980.41,24.3,21,9.27,0.0,1005.89,90.0
2018-05-13 19:50,50.630465,-96.9807666666667,8.7,16.4,286,980.33,24.6,21,9.39,0.0,1005.79,90.0
2018-05-13 20:00,50.6304366666667,-96.9807533333333,11.3,17.3,284,980.25,24.8,20,9.55,0.0,1005.68,142.0
2018-05-13 20:10,50.6304333333333,-96.980755,6.9,15.0,301,980.25,24.7,20,9.61,0.0,1005.67,142.0
2018-05-13 20:20,50.630435,-96.980755,9.3,14.1,285,980.22,24.7,19,9.64,0.0,1005.63,142.0
2018-05-13 20:30,50.630435,-96.980755,7.9,16.1,300,980.15,25.1,19,9.70,0.0,1005.51,142.0
2018-05-13 20:40,50.6304366666667,-96.980755,10.6,18.2,312,980.05,25.4,17,9.73,0.0,1005.40,142.0
2018-05-13 20:50,50.6304366666667,-96.980755,9.7,18.7,310,980.07,25.4,16,9.85,0.0,1005.42,142.0
2018-05-13 21:00,50.6304366666667,-96.9807533333333,9.2,16.9,297,980.17,25.4,16,9.90,0.0,1005.50,228.3
2018-05-13 21:10,50.6304366666667,-96.9807533333333,6.4,12.9,42,980.37,20.7,29,9.87,0.0,1005.92,228.3
2018-05-13 21:20,50.6304533333333,-96.9807683333333,5.7,10.7,36,980.37,17.2,34,9.81,0.0,1006.05,228.3
2018-05-13 21:30,50.63044,-96.980765,5.8,16.9,25,980.26,17.8,31,9.84,0.0,1005.91,228.3
2018-05-13 21:40,50.6304383333333,-96.9807516666667,8.1,15.6,314,980.12,23.2,19,9.87,0.0,1005.52,228.3
2018-05-13 21:50,50.63043,-96.980765,5.7,9.7,61,980.30,20.4,29,9.58,0.0,1005.81,228.3
2018-05-13 22:00,50.6304266666667,-96.98076,5.9,14.4,347,980.18,19.7,27,9.59,0.0,1005.72,360.0
2018-05-13 22:10,50.6304266666667,-96.980745,10.1,17.1,318,980.07,24.6,19,9.72,0.0,1005.40,360.0
2018-05-13 22:20,50.63043,-96.9807516666667,11.7,18.4,321,979.99,25.0,19,9.35,0.0,1005.28,360.0
2018-05-13 22:30,50.6304316666667,-96.9808083333333,7.7,16.6,304,980.13,25.2,19,9.18,0.0,1005.40,360.0
2018-05-13 22:40,50.6304266666667,-96.98076,10.5,17.1,318,980.06,25.1,19,9.45,0.0,1005.34,360.0
2018-05-13 22:50,50.6304283333333,-96.98076,8.2,15.6,314,980.06,25.4,18,9.56,0.0,1005.33,360.0
2018-05-13 23:00,50.63043,-96.98076,11.2,16.5,324,979.94,25.6,17,9.26,0.0,1005.40,194.5
2018-05-13 23:10,50.6304333333333,-96.9807616666667,10.0,16.6,316,980.01,25.5,17,8.65,0.0,1005.63,194.5
2018-05-13 23:20,50.6304383333333,-96.9808016666667,15.1,25.7,3,980.06,22.5,26,8.73,0.0,1005.78,194.5
2018-05-13 23:30,50.6304266666667,-96.9807716666667,21.5,25.8,30,980.20,14.5,44,9.38,0.0,1006.04,194.5
2018-05-13 23:40,50.630425,-96.980765,18.9,22.1,38,980.66,12.3,49,9.69,0.0,1006.74,194.5
2018-05-13 23:50,50.63043,-96.980765,15.3,16.8,34,980.97,10.7,54,9.92,0.0,1007.17,194.5
